Location: Madison
(43.0730°N, 89.3819°W)
Time: 14:48:26
(UTC-05:00)

ISS - Pass Details

Date: 25 January 2019
Orbit: 411 x 421 km, 51.6° (Epoch: 21 October)

Event Time Altitude Azimuth Distance (km) Brightness Sun altitude
Rises 19:02:47 0° 271° (W) 2,414 1.6 -22.2°
Reaches altitude 10° 19:05:07 10° 284° (WNW) 1,549 0.1 -22.7°
Enters shadow 19:07:50 26° 334° (NNW) 901 -1.9 -23.2°
